Weather History for Ashland, WI

Change the Weather History Date:

Monday, October 21, 2013

  Actual Average Record
Temperature  
Mean Temperature 34 °F -  
Max Temperature 37 °F 54 °F 81 °F (1953)
Min Temperature 32 °F 33 °F 19 °F (1960)
Degree Days  
Heating Degree Days 30    
Moisture  
Dew Point 29 °F    
Average Humidity 84    
Maximum Humidity 100    
Minimum Humidity 67    
Precipitation  
Precipitation 0.06 in - - ()
Sea Level Pressure  
Sea Level Pressure 29.80 in    
Wind  
Wind Speed 9 mph (West)    
Max Wind Speed 17 mph    
Max Gust Speed 28 mph    
Visibility 6 miles    
Events Snow    
Averages and records for this station are not official NWS values.
T = Trace of Precipitation, MM = Missing Value Source: NWS Daily Summary

Daily Weather History Graph

Daily Weather History Graph

Search for Another Location

Airport:

Trip Planner

Search our weather history database for the weather conditions in past years. The results will help you decide how hot, cold, wet, or windy it might be!

Date:

Astronomy

Oct. 21, 2013 Rise Set
Actual Time 7:29 AM CDT 6:05 PM CDT
Civil Twilight 6:59 AM CDT 6:36 PM CDT
Nautical Twilight 6:24 AM CDT 7:11 PM CDT
Astronomical Twilight 5:49 AM CDT 7:46 PM CDT
Moon 7:50 PM CDT (10/21) 10:13 AM CDT (10/21)
Length of Visible Light 11h 37m
Length of Day
10h 35m
Waning Gibbous, 92% of the Moon is Illuminated
Oct 21
Waning Gibbous
Oct 26
Last Quarter
Nov 3
New
Nov 9
First Quarter
Nov 17
Full

Hourly Weather History & Observations

Time (CDT) Temp. Windchill Dew Point Humidity Pressure Visibility Wind Dir Wind Speed Gust Speed Precip Events Conditions
12:09 AM 35.6 °F 30.7 °F 33.8 °F 93% 29.74 in 10.0 mi WSW 5.8 mph - N/A   Overcast
12:53 AM 36.0 °F 30.3 °F 34.0 °F 93% 29.77 in 10.0 mi West 6.9 mph - N/A   Overcast
1:38 AM 35.6 °F 30.7 °F 35.6 °F 100% 29.75 in 10.0 mi West 5.8 mph - N/A   Overcast
1:51 AM 35.6 °F 30.7 °F 35.6 °F 100% 29.75 in 10.0 mi West 5.8 mph - N/A   Overcast
1:53 AM 36.0 °F 31.1 °F 35.1 °F 97% 29.78 in 10.0 mi West 5.8 mph - N/A   Overcast
2:53 AM 35.1 °F 28.6 °F 33.1 °F 92% 29.80 in 10.0 mi West 8.1 mph - N/A   Overcast
3:53 AM 35.1 °F 27.9 °F 32.0 °F 89% 29.81 in 10.0 mi West 9.2 mph - N/A   Overcast
4:53 AM 33.1 °F 26.9 °F 28.9 °F 85% 29.83 in 10.0 mi West 6.9 mph - N/A   Overcast
5:26 AM 33.8 °F 27.7 °F 30.2 °F 87% 29.80 in 10.0 mi West 6.9 mph - N/A   Overcast
5:53 AM 33.1 °F 25.5 °F 28.9 °F 85% 29.83 in 10.0 mi West 9.2 mph - N/A   Overcast
6:53 AM 32.0 °F 25.6 °F 27.0 °F 82% 29.84 in 10.0 mi West 6.9 mph - N/A   Mostly Cloudy
7:53 AM 32.0 °F 23.6 °F 28.0 °F 85% 29.84 in 10.0 mi WSW 10.4 mph - N/A   Overcast
8:53 AM 32.0 °F 23.6 °F 28.0 °F 85% 29.85 in 4.0 mi West 10.4 mph - 0.00 in Snow Light Snow
9:03 AM 32.0 °F 24.8 °F 28.4 °F 87% 29.82 in 2.0 mi West 8.1 mph - 0.00 in Snow Light Snow
9:06 AM 32.0 °F 24.8 °F 28.4 °F 87% 29.82 in 1.8 mi WSW 8.1 mph - 0.00 in Snow Light Snow
9:18 AM 32.0 °F 23.6 °F 28.4 °F 87% 29.82 in 2.0 mi West 10.4 mph - 0.00 in Snow Light Snow
9:26 AM 32.0 °F 24.2 °F 28.4 °F 87% 29.82 in 1.2 mi West 9.2 mph - 0.00 in Snow Light Snow
9:39 AM 32.0 °F 24.2 °F 28.4 °F 87% 29.82 in 2.0 mi West 9.2 mph 17.3 mph 0.00 in Snow Light Snow
9:48 AM 32.0 °F 24.2 °F 26.6 °F 80% 29.82 in 5.0 mi West 9.2 mph - 0.00 in Snow Light Snow
9:53 AM 32.0 °F 24.2 °F 27.0 °F 82% 29.86 in 6.0 mi West 9.2 mph 17.3 mph 0.00 in Snow Light Snow
10:53 AM 33.1 °F 26.1 °F 26.1 °F 75% 29.86 in 10.0 mi WSW 8.1 mph 16.1 mph 0.00 in   Overcast
11:07 AM 33.8 °F 24.8 °F 26.6 °F 75% 29.82 in 10.0 mi West 12.7 mph - N/A   Overcast
11:53 AM 34.0 °F 24.6 °F 26.1 °F 73% 29.85 in 10.0 mi West 13.8 mph 19.6 mph N/A   Overcast
12:53 PM 35.1 °F 25.2 °F 27.0 °F 72% 29.84 in 4.0 mi West 16.1 mph 21.9 mph 0.00 in Snow Light Snow
1:02 PM 33.8 °F 23.9 °F 28.4 °F 81% 29.81 in 2.5 mi West 15.0 mph 21.9 mph 0.00 in Snow Light Snow
1:10 PM 35.6 °F 26.2 °F 28.4 °F 75% 29.80 in 7.0 mi WSW 15.0 mph 19.6 mph 0.00 in Snow Light Snow
1:53 PM 36.0 °F 26.7 °F 27.0 °F 70% 29.82 in 8.0 mi West 15.0 mph 23.0 mph 0.00 in Snow Light Snow
2:01 PM 33.8 °F 24.8 °F 26.6 °F 75% 29.79 in 9.0 mi West 12.7 mph 21.9 mph 0.00 in   Overcast
2:53 PM 37.0 °F 27.4 °F 27.0 °F 67% 29.81 in 10.0 mi WSW 17.3 mph 25.3 mph 0.00 in Snow Light Snow
3:26 PM 35.6 °F 26.2 °F 26.6 °F 70% 29.78 in 1.8 mi West 15.0 mph 24.2 mph 0.00 in Snow Light Snow
3:30 PM 35.6 °F 26.6 °F 26.6 °F 70% 29.78 in 2.0 mi West 13.8 mph 20.7 mph 0.00 in Snow Light Snow
3:38 PM 35.6 °F 26.2 °F 26.6 °F 70% 29.78 in 7.0 mi WSW 15.0 mph 24.2 mph 0.00 in Snow Light Snow
3:53 PM 33.1 °F 23.4 °F 27.0 °F 78% 29.81 in 1.0 mi West 13.8 mph 27.6 mph 0.00 in Snow Light Snow
4:01 PM 33.8 °F 25.8 °F 28.4 °F 81% 29.78 in 3.0 mi WSW 10.4 mph - 0.00 in Snow Light Snow
4:28 PM 33.8 °F 25.3 °F 26.6 °F 75% 29.79 in 2.5 mi West 11.5 mph 18.4 mph 0.00 in Snow Light Snow
4:35 PM 33.8 °F 23.9 °F 28.4 °F 81% 29.79 in 1.0 mi West 15.0 mph 20.7 mph 0.01 in Snow Light Snow
4:53 PM 34.0 °F 25.5 °F 27.0 °F 75% 29.81 in 9.0 mi WSW 11.5 mph 25.3 mph 0.01 in Snow Light Snow
5:32 PM 33.8 °F 23.9 °F 28.4 °F 81% 29.79 in 1.8 mi West 15.0 mph 21.9 mph 0.00 in Snow Light Snow
5:39 PM 33.8 °F 25.3 °F 28.4 °F 81% 29.79 in 1.5 mi WSW 11.5 mph 19.6 mph 0.00 in Snow Light Snow
5:53 PM 32.0 °F 23.6 °F 28.9 °F 88% 29.81 in 1.8 mi WSW 10.4 mph 19.6 mph 0.00 in Snow Light Snow
6:11 PM 32.0 °F 24.2 °F 28.4 °F 87% 29.78 in 0.8 mi SW 9.2 mph - 0.00 in Snow Light Snow
6:16 PM 32.0 °F 22.5 °F 28.4 °F 87% 29.78 in 1.0 mi WSW 12.7 mph 18.4 mph 0.00 in Snow Light Snow
6:32 PM 32.0 °F 22.5 °F 30.2 °F 93% 29.77 in 1.0 mi SW 12.7 mph 18.4 mph 0.01 in Snow Light Snow
6:53 PM 32.0 °F 22.5 °F 30.0 °F 92% 29.81 in 1.0 mi WSW 12.7 mph 20.7 mph 0.03 in Snow Light Snow
7:10 PM 32.0 °F 23.6 °F 30.2 °F 93% 29.77 in 1.2 mi WSW 10.4 mph 19.6 mph 0.01 in Snow Light Snow
7:44 PM 33.8 °F 24.8 °F 30.2 °F 87% 29.77 in 2.0 mi West 12.7 mph 21.9 mph 0.02 in Snow Light Snow
7:53 PM 33.1 °F 23.9 °F 30.9 °F 92% 29.80 in 4.0 mi West 12.7 mph - 0.02 in Snow Light Snow
8:17 PM 33.8 °F 24.3 °F 30.2 °F 87% 29.77 in 9.0 mi West 13.8 mph - 0.00 in Snow Light Snow
8:34 PM 33.8 °F 25.3 °F 30.2 °F 87% 29.78 in 10.0 mi West 11.5 mph 18.4 mph 0.00 in   Overcast
8:53 PM 34.0 °F 25.0 °F 30.9 °F 89% 29.82 in 10.0 mi West 12.7 mph - 0.00 in   Overcast
9:13 PM 33.8 °F 25.3 °F 30.2 °F 87% 29.79 in 10.0 mi West 11.5 mph - N/A   Overcast
9:53 PM 35.1 °F 27.9 °F 32.0 °F 89% 29.83 in 10.0 mi West 9.2 mph - N/A   Overcast
10:53 PM 34.0 °F 27.2 °F 32.0 °F 92% 29.84 in 10.0 mi WNW 8.1 mph - 0.00 in   Scattered Clouds
11:53 PM 35.1 °F 28.6 °F 32.0 °F 89% 29.86 in 10.0 mi WNW 8.1 mph - N/A   Mostly Cloudy